GW3733 Weather Reports


time (UTC)temp
F
wind
direction
speed
knots
gust
knots
rain 1hr
in
rain 24hr
in
rain mn
in
humidity
%
barometer
mb
20260831164919 80 351 0.0 0.0 0.00 0.00 0.00 80 1016.9
20260831164415 80 350 0.0 0.0 0.00 0.00 0.00 83 1017.0
20260831163910 80 348 0.0 0.0 0.00 0.00 0.00 80 1016.7
20260831163405 80 4 0.0 0.0 0.00 0.00 0.00 80 1016.9
20260831162904 80 356 0.0 0.0 0.00 0.00 0.00 80 1017.0
20260831162359 80 342 0.0 0.0 0.00 0.00 0.00 81 1016.9
20260831161857 81 355 0.0 0.0 0.00 0.00 0.00 81 1016.7
20260831161354 80 345 0.0 0.0 0.00 0.00 0.00 79 1017.1
20260831160849 80 345 0.0 0.0 0.00 0.00 0.00 78 1017.0
20260831160343 82 30 0.0 0.0 0.00 0.00 0.00 76 1017.0
20260831155838 82 355 0.0 0.0 0.00 0.00 0.00 76 1016.9
20260831155332 82 15 0.0 0.0 0.00 0.00 0.00 75 1017.1
20260831154828 82 339 0.0 0.0 0.00 0.00 0.00 74 1017.0
20260831154325 80 334 0.0 0.0 0.00 0.00 0.00 80 1017.3
20260831153823 80 359 0.0 0.0 0.00 0.00 0.00 79 1017.0
20260831153319 81 12 0.0 0.0 0.00 0.00 0.00 79 1017.0
20260831152815 82 55 0.0 0.0 0.00 0.00 0.00 76 1017.3
20260831152311 82 12 0.0 0.0 0.00 0.00 0.00 77 1017.2
20260831151806 81 13 0.0 0.0 0.00 0.00 0.00 79 1017.2
20260831151305 79 41 0.0 0.0 0.00 0.00 0.00 81 1017.2
20260831150800 80 355 0.0 0.0 0.00 0.00 0.00 81 1017.3
20260831150256 80 355 0.0 0.0 0.00 0.00 0.00 80 1017.5
20260831145754 79 348 0.0 0.0 0.00 0.00 0.00 83 1017.5
20260831145251 78 354 0.0 0.0 0.00 0.00 0.00 83 1017.5
20260831144746 78 351 0.0 0.0 0.00 0.00 0.00 81 1017.0
20260831144243 79 350 0.0 0.0 0.00 0.00 0.00 84 1017.3
20260831143742 79 345 0.0 0.0 0.00 0.00 0.00 82 1017.4
20260831143238 78 344 0.0 0.0 0.00 0.00 0.00 82 1017.1
20260831142733 78 351 0.0 0.0 0.00 0.00 0.00 80 1017.1
20260831142228 78 339 0.0 0.0 0.00 0.00 0.00 80 1017.0
20260831141728 78 345 0.0 0.0 0.00 0.00 0.00 79 1017.0
20260831141223 77 346 0.0 0.0 0.00 0.00 0.00 81 1017.0
20260831140722 78 344 0.0 0.0 0.00 0.00 0.00 84 1017.0
20260831140217 78 345 0.0 0.0 0.00 0.00 0.00 79 1017.2
20260831135715 78 345 0.0 0.0 0.00 0.00 0.00 80 1017.3
20260831135211 79 346 0.0 0.0 0.00 0.00 0.00 79 1017.3
20260831134706 78 345 0.0 0.0 0.00 0.00 0.00 82 1017.2
20260831134203 77 344 0.0 0.0 0.00 0.00 0.00 86 1017.3
20260831133701 76 344 0.0 0.0 0.00 0.00 0.00 87 1017.3
20260831133156 76 344 0.0 0.0 0.00 0.00 0.00 87 1017.3
20260831132652 75 344 0.0 0.0 0.00 0.00 0.00 87 1017.5
20260831132151 74 344 0.0 0.0 0.00 0.00 0.00 87 1017.6
20260831131646 74 344 0.0 0.0 0.00 0.00 0.00 88 1017.2
20260831131142 73 344 0.0 0.0 0.00 0.00 0.00 89 1017.5
20260831130637 72 344 0.0 0.0 0.00 0.00 0.00 93 1017.6
20260831130133 71 344 0.0 0.0 0.00 0.00 0.00 95 1017.2
20260831125631 70 344 0.0 0.0 0.00 0.00 0.00 97 1017.3
20260831125127 70 344 0.0 0.0 0.00 0.00 0.00 97 1017.2
20260831124623 69 344 0.0 0.0 0.00 0.00 0.00 98 1017.1
20260831124118 69 344 0.0 0.0 0.00 0.00 0.00 99 1017.3
20260831123617 68 344 0.0 0.0 0.00 0.00 0.00 99 1017.4
20260831123111 67 344 0.0 0.0 0.00 0.00 0.00 99 1017.4
20260831122611 67 344 0.0 0.0 0.00 0.00 0.00 99 1017.4
20260831122107 66 344 0.0 0.0 0.00 0.00 0.00 99 1017.5
20260831121606 66 344 0.0 0.0 0.00 0.00 0.00 99 1017.6
20260831121103 66 344 0.0 0.0 0.00 0.00 0.00 99 1017.3
20260831120602 66 344 0.0 0.0 0.00 0.00 0.00 99 1017.2
20260831120058 65 344 0.0 0.0 0.00 0.00 0.00 99 1017.3
20260831115554 65 344 0.0 0.0 0.00 0.00 0.00 99 1017.2
20260831115049 65 344 0.0 0.0 0.00 0.00 0.00 99 1017.4
20260831114547 65 344 0.0 0.0 0.00 0.00 0.00 99 1017.1
20260831114042 65 344 0.0 0.0 0.00 0.00 0.00 99 1017.1
20260831113542 64 344 0.0 0.0 0.00 0.00 0.00 99 1017.2
20260831113038 64 344 0.0 0.0 0.00 0.00 0.00 99 1017.3
20260831112537 64 344 0.0 0.0 0.00 0.00 0.00 99 1017.1
20260831112032 64 344 0.0 0.0 0.00 0.00 0.00 99 1017.1
20260831111528 64 343 0.0 0.0 0.00 0.00 0.00 99 1017.2
20260831111024 64 343 0.0 0.0 0.00 0.00 0.00 99 1017.0
20260831110519 64 343 0.0 0.0 0.00 0.00 0.00 99 1017.1
20260831110014 63 343 0.0 0.0 0.00 0.00 0.00 99 1017.0
20260831105508 63 343 0.0 0.0 0.00 0.00 0.00 99 1016.9
20260831105003 64 343 0.0 0.0 0.00 0.00 0.00 99 1016.5
20260831104459 64 343 0.0 0.0 0.00 0.00 0.00 99 1016.5
20260831103955 64 343 0.0 0.0 0.00 0.00 0.00 99 1016.5
20260831103454 64 343 0.0 0.0 0.00 0.00 0.00 99 1016.5
20260831102950 64 343 0.0 0.0 0.00 0.00 0.00 99 1016.6
20260831102445 64 343 0.0 0.0 0.00 0.00 0.00 99 1016.5
20260831101940 64 343 0.0 0.0 0.00 0.00 0.00 99 1016.5
20260831101435 64 343 0.0 0.0 0.00 0.00 0.00 99 1016.5
20260831100931 64 343 0.0 0.0 0.00 0.00 0.00 99 1016.4
20260831100427 64 343 0.0 0.0 0.00 0.00 0.00 99 1016.2
20260831095922 64 343 0.0 0.0 0.00 0.00 0.00 99 1016.2
20260831095422 65 343 0.0 0.0 0.00 0.00 0.00 99 1015.9
20260831094916 65 343 0.0 0.0 0.00 0.00 0.00 99 1016.0
20260831094412 65 343 0.0 0.0 0.00 0.00 0.00 99 1016.1
20260831093908 65 343 0.0 0.0 0.00 0.00 0.00 99 1016.3
20260831093403 65 342 0.0 0.0 0.00 0.00 0.00 99 1016.2
20260831092900 65 344 0.0 0.0 0.00 0.00 0.00 99 1016.2
20260831092355 65 344 0.0 0.0 0.00 0.00 0.00 99 1016.1
20260831091850 65 344 0.0 0.0 0.00 0.00 0.00 99 1016.1
20260831091345 65 344 0.0 0.0 0.00 0.00 0.00 99 1016.1
20260831090840 65 344 0.0 0.0 0.00 0.00 0.00 99 1015.9
20260831090336 65 344 0.0 0.0 0.00 0.00 0.00 99 1016.1
20260831085832 65 344 0.0 0.0 0.00 0.00 0.00 99 1015.9
20260831085326 65 344 0.0 0.0 0.00 0.00 0.00 99 1016.1
20260831084821 65 344 0.0 0.0 0.00 0.00 0.00 99 1015.9
20260831084317 65 344 0.0 0.0 0.00 0.00 0.00 99 1016.0
20260831083814 65 344 0.0 0.0 0.00 0.00 0.00 99 1016.1
20260831083309 65 344 0.0 0.0 0.00 0.00 0.00 99 1016.2
20260831082808 65 344 0.0 0.0 0.00 0.00 0.00 99 1015.9
20260831082306 65 344 0.0 0.0 0.00 0.00 0.00 99 1016.1
20260831081758 65 344 0.0 0.0 0.00 0.00 0.00 99 1015.9
20260831081254 65 344 0.0 0.0 0.00 0.00 0.00 99 1016.0
20260831080749 65 344 0.0 0.0 0.00 0.00 0.00 99 1016.0
20260831080244 65 344 0.0 0.0 0.00 0.00 0.00 99 1016.0
20260831075740 65 344 0.0 0.0 0.00 0.00 0.00 99 1015.9
20260831075235 65 344 0.0 0.0 0.00 0.00 0.00 99 1016.2
20260831074734 64 344 0.0 0.0 0.00 0.00 0.00 99 1016.0
20260831074233 64 344 0.0 0.0 0.00 0.00 0.00 99 1016.0
20260831073730 64 344 0.0 0.0 0.00 0.00 0.00 99 1015.8
20260831073229 64 344 0.0 0.0 0.00 0.00 0.00 99 1015.8
20260831072724 64 344 0.0 0.0 0.00 0.00 0.00 99 1015.6
20260831072221 64 344 0.0 0.0 0.00 0.00 0.00 99 1015.6
20260831071721 64 344 0.0 0.0 0.00 0.00 0.00 99 1015.6
20260831071215 64 343 0.0 0.0 0.00 0.00 0.00 99 1015.4
20260831070714 64 344 0.0 0.0 0.00 0.00 0.00 99 1015.8
20260831070208 64 344 0.0 0.0 0.00 0.00 0.00 99 1015.6
20260831065708 64 344 0.0 0.0 0.00 0.00 0.00 99 1015.5
20260831065206 64 344 0.0 0.0 0.00 0.00 0.00 99 1015.6
20260831064701 64 344 0.0 0.0 0.00 0.00 0.00 99 1015.7
20260831064156 64 344 0.0 0.0 0.00 0.00 0.00 99 1015.7
20260831063647 64 344 0.0 0.0 0.00 0.00 0.00 99 1015.7
20260831063137 64 344 0.0 0.0 0.00 0.00 0.00 99 1015.8
20260831062636 64 344 0.0 0.0 0.00 0.00 0.00 99 1016.0
20260831062130 65 344 0.0 0.0 0.00 0.00 0.00 99 1015.9
20260831061628 65 344 0.0 0.0 0.00 0.00 0.00 99 1016.0
20260831061124 65 344 0.0 0.0 0.00 0.00 0.00 99 1016.1
20260831060620 65 344 0.0 0.0 0.00 0.00 0.00 99 1016.1
20260831060115 65 344 0.0 0.0 0.00 0.00 0.00 99 1016.2
20260831055614 65 344 0.0 0.0 0.00 0.00 0.00 99 1016.1
20260831055110 65 344 0.0 0.0 0.00 0.00 0.00 99 1016.2
20260831054609 65 344 0.0 0.0 0.00 0.00 0.00 99 1016.3
20260831054108 65 344 0.0 0.0 0.00 0.00 0.00 99 1016.4
20260831053608 66 344 0.0 0.0 0.00 0.00 0.00 99 1016.4
20260831053108 66 344 0.0 0.0 0.00 0.00 0.00 99 1016.4
20260831052606 66 344 0.0 0.0 0.00 0.00 0.00 99 1016.4
20260831052101 66 344 0.0 0.0 0.00 0.00 0.00 99 1016.2
20260831051559 66 344 0.0 0.0 0.00 0.00 0.00 99 1016.3
20260831051053 66 344 0.0 0.0 0.00 0.00 0.00 99 1016.2
20260831050553 66 344 0.0 0.0 0.00 0.00 0.00 99 1016.5
20260831050051 66 344 0.0 0.0 0.00 0.00 0.00 99 1016.4
20260831045551 66 344 0.0 0.0 0.00 0.00 0.00 99 1016.4
20260831045046 66 344 0.0 0.0 0.00 0.00 0.00 99 1016.4
20260831044542 66 344 0.0 0.0 0.00 0.00 0.00 99 1016.3
20260831044037 66 344 0.0 0.0 0.00 0.00 0.00 99 1016.3
20260831043537 66 344 0.0 0.0 0.00 0.00 0.00 99 1016.5
20260831043032 66 344 0.0 0.0 0.00 0.00 0.00 99 1016.3
20260831042526 66 344 0.0 0.0 0.00 0.00 0.00 99 1016.5
20260831042020 67 344 0.0 0.0 0.00 0.00 0.00 99 1016.3
20260831041510 66 344 0.0 0.0 0.00 0.00 0.00 99 1016.2
20260831041009 66 344 0.0 0.0 0.00 0.00 0.00 99 1016.4
20260831040504 66 344 0.0 0.0 0.00 0.00 0.00 99 1016.6
20260831040001 67 344 0.0 0.0 0.00 0.00 0.00 99 1016.3
20260831035455 67 344 0.0 0.0 0.00 0.00 0.00 99 1016.2
20260831034950 67 344 0.0 0.0 0.00 0.00 0.00 99 1016.7
20260831034445 67 344 0.0 0.0 0.00 0.00 0.00 99 1016.5
20260831033941 67 344 0.0 0.0 0.00 0.00 0.00 99 1016.5
20260831033436 67 344 0.0 0.0 0.00 0.00 0.00 99 1016.5
20260831032932 68 344 0.0 0.0 0.00 0.00 0.00 99 1016.5
20260831032431 68 344 0.0 0.0 0.00 0.00 0.00 99 1016.4
20260831031926 68 344 0.0 0.0 0.00 0.00 0.00 99 1016.5
20260831031426 68 344 0.0 0.0 0.00 0.00 0.00 99 1016.6
20260831030920 69 344 0.0 0.0 0.00 0.00 0.00 99 1016.5
20260831030419 69 344 0.0 0.0 0.00 0.00 0.00 99 1016.6
20260831025918 69 344 0.0 0.0 0.00 0.00 0.00 99 1016.7
20260831025412 69 344 0.0 0.0 0.00 0.00 0.00 99 1016.7
20260831024908 69 344 0.0 0.0 0.00 0.00 0.00 99 1016.6
20260831024407 69 344 0.0 0.0 0.00 0.00 0.00 99 1016.7
20260831023907 69 344 0.0 0.0 0.00 0.00 0.00 99 1016.4
20260831023405 69 344 0.0 0.0 0.00 0.00 0.00 99 1016.4
20260831022901 69 344 0.0 0.0 0.00 0.00 0.00 99 1016.4
20260831022400 69 344 0.0 0.0 0.00 0.00 0.00 99 1016.6
20260831021855 69 345 0.0 0.0 0.00 0.00 0.00 99 1016.4
20260831021354 69 345 0.0 0.0 0.00 0.00 0.00 99 1016.5
20260831020850 69 345 0.0 0.0 0.00 0.00 0.00 99 1016.7
20260831020344 69 345 0.0 0.0 0.00 0.00 0.00 99 1016.6
20260831015840 70 345 0.0 0.0 0.00 0.00 0.00 99 1016.6
20260831015336 70 345 0.0 0.0 0.00 0.00 0.00 99 1016.7
20260831014835 70 345 0.0 0.0 0.00 0.00 0.00 99 1016.7
20260831014330 70 345 0.0 0.0 0.00 0.00 0.00 99 1016.7
20260831013827 70 345 0.0 0.0 0.00 0.00 0.00 99 1016.7
20260831013326 70 345 0.0 0.0 0.00 0.00 0.00 99 1016.6
20260831012820 70 345 0.0 0.0 0.00 0.00 0.00 99 1016.7
20260831012317 69 345 0.0 0.0 0.00 0.00 0.00 99 1016.7
20260831011815 69 345 0.0 0.0 0.00 0.00 0.00 99 1016.5
20260831011310 70 345 0.0 0.0 0.00 0.00 0.00 99 1016.6
20260831010806 70 345 0.0 0.0 0.00 0.00 0.00 99 1016.3
20260831010301 70 345 0.0 0.0 0.00 0.00 0.00 99 1016.6
20260831005757 70 345 0.0 0.0 0.00 0.00 0.00 99 1016.5
20260831005252 70 345 0.0 0.0 0.00 0.00 0.00 99 1016.4
20260831004747 70 346 0.0 0.0 0.00 0.00 0.00 99 1016.1
20260831004243 70 345 0.0 0.0 0.00 0.00 0.00 99 1016.0
20260831003738 70 345 0.0 0.0 0.00 0.00 0.00 99 1015.9
20260831003235 70 345 0.0 0.0 0.00 0.00 0.00 99 1015.9
20260831002734 71 346 0.0 0.0 0.00 0.00 0.00 99 1015.8
20260831002233 71 346 0.0 0.0 0.00 0.00 0.00 98 1015.8
20260831001729 71 346 0.0 0.0 0.00 0.00 0.00 98 1015.6
20260831001224 71 346 0.0 0.0 0.00 0.00 0.00 98 1015.7
20260831000721 72 346 0.0 0.0 0.00 0.00 0.00 98 1015.5
20260831000218 71 346 0.0 0.0 0.00 0.00 0.00 97 1015.4
20260830235715 72 344 0.0 0.0 0.00 0.00 0.00 97 1015.5
20260830235210 72 344 0.0 0.0 0.00 0.00 0.00 97 1015.3
20260830234704 72 344 0.0 0.0 0.00 0.00 0.00 97 1015.1
20260830234201 72 344 0.0 0.0 0.00 0.00 0.00 96 1015.2
20260830233656 73 344 0.0 0.0 0.00 0.00 0.00 95 1015.3
20260830233151 73 344 0.0 0.0 0.00 0.00 0.00 95 1015.5
20260830232647 73 344 0.0 0.0 0.00 0.00 0.00 95 1015.4
20260830232142 74 345 0.0 0.0 0.00 0.00 0.00 94 1015.5
20260830231638 74 345 0.0 0.0 0.00 0.00 0.00 93 1015.5
20260830231132 75 344 0.0 0.0 0.00 0.00 0.00 92 1015.6
20260830230628 75 344 0.0 0.0 0.00 0.00 0.00 90 1015.4
20260830230127 76 344 0.0 0.0 0.00 0.00 0.00 89 1015.5
20260830225622 77 344 0.0 0.0 0.00 0.00 0.00 87 1015.6
20260830225117 77 344 0.0 0.0 0.00 0.00 0.00 85 1015.6
20260830224616 77 344 0.0 0.0 0.00 0.00 0.00 83 1015.6
20260830224112 78 344 0.0 0.0 0.00 0.00 0.00 81 1015.7
20260830223609 79 344 0.0 0.0 0.00 0.00 0.00 78 1015.6
20260830223108 79 344 0.0 0.0 0.00 0.00 0.00 78 1015.6
20260830222603 80 344 0.0 0.0 0.00 0.00 0.00 77 1015.5
20260830222059 80 344 0.0 0.0 0.00 0.00 0.00 76 1015.3
20260830221554 80 344 0.0 0.0 0.00 0.00 0.00 73 1015.4
20260830221050 81 343 0.0 0.0 0.00 0.00 0.00 74 1015.3
20260830220545 81 336 0.0 0.0 0.00 0.00 0.00 69 1015.3
20260830220043 81 349 0.0 0.0 0.00 0.00 0.00 69 1015.3
20260830215537 81 348 0.0 0.0 0.00 0.00 0.00 70 1015.5
20260830215032 80 344 0.0 0.0 0.00 0.00 0.00 75 1015.4
20260830214528 80 344 0.0 0.0 0.00 0.00 0.00 84 1015.5
20260830214027 81 343 0.0 0.0 0.00 0.00 0.00 83 1015.4
20260830213527 81 346 0.0 0.0 0.00 0.00 0.00 78 1015.4
20260830213023 81 321 0.0 0.0 0.00 0.00 0.00 81 1015.2
20260830212519 81 334 0.0 0.0 0.00 0.00 0.00 82 1015.2
20260830212014 80 344 0.0 0.0 0.00 0.00 0.00 82 1015.0
20260830211508 80 345 0.0 0.0 0.00 0.00 0.00 82 1015.0
20260830211003 80 354 0.0 0.0 0.00 0.00 0.00 81 1015.0
20260830210503 79 353 0.0 0.0 0.00 0.00 0.00 84 1014.9
20260830210001 78 354 0.0 0.0 0.00 0.00 0.00 83 1015.2
20260830205500 78 356 0.0 0.0 0.00 0.00 0.00 83 1015.1
20260830204955 79 5 0.0 0.0 0.00 0.00 0.00 80 1015.1
20260830204454 79 10 0.0 0.0 0.00 0.00 0.00 82 1015.2
20260830203949 79 346 0.0 0.0 0.00 0.00 0.00 82 1015.5
20260830203446 79 356 0.0 0.0 0.00 0.00 0.00 82 1015.4
20260830202945 79 14 0.0 0.0 0.00 0.00 0.00 80 1015.5
20260830202440 79 331 0.0 0.0 0.00 0.00 0.00 79 1015.4
20260830201931 80 29 0.0 0.0 0.00 0.00 0.00 77 1015.4
20260830201429 80 304 0.0 0.0 0.00 0.00 0.00 74 1015.5
20260830200925 80 46 0.0 0.0 0.00 0.00 0.00 68 1015.5
20260830200425 80 324 0.0 0.0 0.00 0.00 0.00 74 1015.5
20260830195920 80 322 0.0 0.0 0.00 0.00 0.00 79 1015.6
20260830195415 81 342 0.0 0.0 0.00 0.00 0.00 74 1015.5
20260830194913 83 357 0.0 0.0 0.00 0.00 0.00 73 1015.4
20260830194412 86 15 0.0 0.0 0.00 0.00 0.00 66 1015.3
20260830193907 87 8 0.0 0.0 0.00 0.00 0.00 61 1015.5
20260830193406 86 7 0.0 0.0 0.00 0.00 0.00 60 1015.6
20260830192902 87 8 0.0 0.0 0.00 0.00 0.00 58 1015.6
20260830192401 89 318 0.0 0.0 0.00 0.00 0.00 55 1015.5
20260830191857 88 317 0.0 0.0 0.00 0.00 0.00 58 1015.5
20260830191357 89 313 0.0 0.0 0.00 0.00 0.00 59 1015.7
20260830190853 88 312 0.0 0.0 0.00 0.00 0.00 63 1015.6
20260830190348 87 329 0.0 0.0 0.00 0.00 0.00 63 1015.7
20260830185846 88 349 0.0 0.0 0.00 0.00 0.00 61 1015.8
20260830185342 87 2 0.0 0.0 0.00 0.00 0.00 61 1015.8
20260830184837 88 342 0.0 0.0 0.00 0.00 0.00 63 1015.8
20260830184336 88 11 0.0 0.0 0.00 0.00 0.00 62 1016.1
20260830183830 87 13 0.0 0.0 0.00 0.00 0.00 60 1016.2
20260830183325 88 4 0.0 0.0 0.00 0.00 0.00 59 1016.3
20260830182821 87 351 0.0 0.0 0.00 0.00 0.00 62 1016.6
20260830182316 86 6 0.0 0.0 0.00 0.00 0.00 61 1016.6
20260830181812 86 352 0.0 0.0 0.00 0.00 0.00 67 1016.5
20260830181307 85 340 0.0 0.0 0.00 0.00 0.00 66 1016.6
20260830180807 82 337 0.0 0.0 0.00 0.00 0.00 69 1017.0
20260830180302 82 358 0.0 0.0 0.00 0.00 0.00 70 1016.9
20260830175800 84 339 0.0 0.0 0.00 0.00 0.00 68 1016.9
20260830175256 84 349 0.0 0.0 0.00 0.00 0.00 63 1016.7
20260830174756 86 349 0.0 0.0 0.00 0.00 0.00 62 1017.0
20260830174252 86 349 0.0 0.0 0.00 0.00 0.00 64 1016.7
20260830173751 87 348 0.0 0.0 0.00 0.00 0.00 60 1016.7
20260830173247 88 326 0.0 0.0 0.00 0.00 0.00 64 1016.7
20260830172743 88 334 0.0 0.0 0.00 0.00 0.00 60 1016.9
20260830172240 87 17 0.0 0.0 0.00 0.00 0.00 59 1017.1
20260830171736 88 8 0.0 0.0 0.00 0.00 0.00 62 1017.0
20260830171235 88 317 0.0 0.0 0.00 0.00 0.00 59 1017.0
20260830170730 87 69 0.0 0.0 0.00 0.00 0.00 61 1017.1
20260830170229 87 59 0.0 0.0 0.00 0.00 0.00 63 1017.1
20260830165729 86 289 0.0 0.0 0.00 0.00 0.00 65 1017.1